Location: Asheville, NC
(35.6000°N, 82.5500°W)
Time: 11:44:07
(UTC-04:00)

Vanguard 2 Rocket - Pass Details

Date: 15 February 2018
Orbit: 554 x 3327 km, 32.9° (Epoch: 23 May)

Event Time Altitude Azimuth Distance (km) Brightness Sun altitude
Rises 21:10:56 0° 188° (S) 4,721 10.5 -36.8°
Enters shadow 21:13:25 - 178° (S) 4,348 10.2 -37.3°
Reaches altitude 10° 21:14:55 10° 171° (S) 4,184 - -37.6°
Maximum altitude 21:22:49 20° 129° (SE) 4,182 - -39.2°
Drops below altitude 10° 21:33:15 10° 91° (E) 5,760 - -41.2°
Sets 21:40:12 0° 78° (ENE) 7,119 - -42.6°
